This is the latest recevied weather packets stored in our database for station/object K5IDL. If no packets are shown the sender has not sent any weather packets the latest 1 day(s).
| Time | Temp. | Humidity | Pressure | Rain* | Wind** | Luminosity | Snow |
|---|---|---|---|---|---|---|---|
| 1778002728 | 28.33° C | 67% | 1006 hPa | 0 mm | 0.89 m/s, 223° | 297 W/m² | - |
| 1778002424 | 27.78° C | 68% | 1005.9 hPa | 0 mm | 0.89 m/s, 337° | 250 W/m² | - |
| 1778002122 | 27.78° C | 69% | 1006 hPa | 0 mm | 1.34 m/s, 152° | 268 W/m² | - |
| 1777999528 | 27.22° C | 69% | 1006.1 hPa | 0 mm | 0.89 m/s, 161° | 251 W/m² | - |
| 1777999226 | 27.22° C | 69% | 1006.1 hPa | 0 mm | 0.89 m/s, 161° | 251 W/m² | - |
| 1777998925 | 27.22° C | 69% | 1006 hPa | 0 mm | 0.89 m/s, 17° | 329 W/m² | - |
| 1777998621 | 26.11° C | 72% | 1006.1 hPa | 0 mm | 0.89 m/s, 99° | 324 W/m² | - |
| 1777998325 | 26.67° C | 71% | 1006 hPa | 0 mm | 2.24 m/s, 222° | 225 W/m² | - |
| 1777998011 | 26.67° C | 70% | 1005.9 hPa | 0 mm | 0.89 m/s, 235° | 190 W/m² | - |
| 1777997708 | 26.67° C | 71% | 1005.7 hPa | 0 mm | 0.45 m/s, 340° | 224 W/m² | - |
| 1777997406 | 26.67° C | 71% | 1005.7 hPa | 0 mm | 0 m/s | 261 W/m² | - |
| 1777997103 | 26.11° C | 72% | 1005.8 hPa | 0 mm | 0.45 m/s, 332° | 348 W/m² | - |
| 1777996799 | 26.11° C | 72% | 1005.5 hPa | 0 mm | 0.45 m/s, 228° | 215 W/m² | - |
| 1777996496 | 26.11° C | 72% | 1005.7 hPa | 0 mm | 0.45 m/s, 292° | 259 W/m² | - |
| 1777996193 | 26.11° C | 72% | 1005.7 hPa | 0 mm | 0.45 m/s, 149° | 275 W/m² | - |
| 1777995889 | 26.11° C | 72% | 1005.4 hPa | 0 mm | 0.89 m/s, 316° | 222 W/m² | - |
| 1777995585 | 26.11° C | 73% | 1005.5 hPa | 0 mm | 0.89 m/s, 65° | 238 W/m² | - |
| 1777995283 | 26.11° C | 72% | 1005.5 hPa | 0 mm | 0.89 m/s, 298° | 278 W/m² | - |
| 1777994980 | 26.11° C | 73% | 1005.3 hPa | 0 mm | 0.45 m/s, 271° | 267 W/m² | - |
| 1777994677 | 25.56° C | 75% | 1005.5 hPa | 0 mm | 0.45 m/s, 332° | 283 W/m² | - |
| 1777994378 | 25° C | 75% | 1005.7 hPa | 0 mm | 0.45 m/s, 79° | 173 W/m² | - |
| 1777994073 | 25.56° C | 75% | 1005.8 hPa | 0 mm | 0.45 m/s, 291° | 150 W/m² | - |
| 1777993771 | 25.56° C | 75% | 1006 hPa | 0 mm | 0.89 m/s, 122° | 131 W/m² | - |
| 1777993468 | 25.56° C | 74% | 1005.9 hPa | 0 mm | 0.89 m/s, 342° | 130 W/m² | - |
| 1777993167 | 25.56° C | 74% | 1005.8 hPa | 0 mm | 0.45 m/s, 290° | 146 W/m² | - |
* Rain latest hour (hover to see other rain measurements)
** Current wind speed in m/s (hover to see current wind gust speed)